岩本彗星

C/2018 Y1 ( Iwamoto )

English version
Home page
Updated on February 9, 2019

---------------------------------------------------------------------

・ プロフィール

発見日 2018年12月18日
発見光度 12等
発見者 Masayuki Iwamoto (Awa, Tokushima, Japan)

・ 写真集

・ 軌道要素

Epoch 2019 Feb. 6.0 TT = JDT 2458520.5
T 2019 Feb. 7.02272 TT                                  MPCW
q   1.2869164            (2000.0)            P               Q
z  +0.0081356      Peri.  358.05048     -0.85996249     +0.47743909
 +/-0.0005450      Node   147.48202     +0.47266578     +0.61181831
e   0.9895302      Incl.  160.40041     +0.19248787     +0.63065860
From 442 observations 2018 Dec. 18-2019 Feb. 1, mean residual 0".7.

・ 星図

・ 光度変化

        m1 = 7.0 + 5 logΔ + 15.0 log r

---------------------------------------------------------------------

軌道要素はM.P.E.C. 2019-C15に掲載されたものです。
星図はステラナビゲータ Ver.10 (アストロアーツ) で作成したものです。
光度グラフはComet for Windowsで作成したものです。

---------------------------------------------------------------------

Copyright(C) Seiichi Yoshida (comet@aerith.net). All rights reserved.